Location: Chuathbaluk
(61.5726°N, 159.2454°W)
Time: 05:42:56
(UTC+00:00)

FO-99 - Pass Details

Date: 26 January 2021
Orbit: 473 x 506 km, 97.2° (Epoch: 08 March)

Event Time Altitude Azimuth Distance (km) Brightness Sun altitude
Exits shadow 06:02:40 16° 351° (N) 1,372 ? -25.0°
Drops below altitude 10° 06:03:28 10° 349° (N) 1,696 ? -25.1°
Sets 06:05:33 0° 346° (NNW) 2,577 ? -25.3°
